Weather in Novosel'skoye

Russia / Primorsky Krai     44°46′28″N   132°41′37″E
temp.,
°C
wind,
m/s
gust,
m/s
humid.,
%
clouds,
%
prec.,
mm/h
press.,
hPa
HPBL,
m
15 april, thu
thu1501:00+2ssw225141 0.0 101233
04:000ssw226911 0.0 101326
07:00−1s35580 0.0 101580
10:00+5sw453459 0.0 1015594
13:00+10ssw58295 0.0 10141387
16:00+12ssw81027100 0.0 10121492
19:00+10ssw91633100 0.0 1012652
22:00+8ssw81735100 0.0 1014625
16 april, fri
fri1601:00+8ssw61437100 0.0 1014582
04:00+7s61443100 0.0 1014513
07:00+6sse715605 0.0 1013570
10:00+11s91552100 0.0 10121378
13:00+12sse101645100 0.0 10111537
16:00+12sse91344100 0.0 10091676
19:00+11sse91558100 0.1 10071500
22:00+8s71180100 1.9 10071099
17 april, sat
sat1701:00+7ssw71278100 5.1 1008523
04:00+6ssw61380100 5.2 1009436
07:00+5ssw5128294 0.0 1011282
10:00+10ssw610535 0.0 1012875
13:00+12w484260 0.0 10111488
16:00+14wsw24314 0.0 10091810
19:00+12nnw2340100 0.0 100974
22:00+8nw3353100 0.0 101064
18 april, sun
sun1801:00+9ne5124799 0.0 1008275
04:00+7nne51255100 0.0 1007241
07:00+6n61561100 0.0 1008351
10:00+8n81366100 0.0 1008555
13:00+12nnw913455 0.0 10061191
16:00+12nnw10144556 0.0 1004807
19:00+10nnw816494 0.0 1005545
22:00+7nnw6146020 0.0 1006271
19 april, mon
mon1901:00+6nnw512660 0.0 1006205
04:00+5nw512710 0.0 1007199
07:00+4nw412742 0.0 1007225
10:00+8nnw612620 0.0 1008417
13:00+12nnw711481 0.0 10071253
16:00+14nw610414 0.0 10051394
19:00+12nnw410481 0.0 1005240
22:00+9nw35510 0.0 100660